Location: Unspecified
(0.0000°N, 0.0000°E)
Time: 06:05:37
(UTC+00:00)

Courier 1B - Pass Details

Date: 24 September 2023
Orbit: 962 x 1208 km, 28.3° (Epoch: 06 December)

Event Time Altitude Azimuth Distance (km) Brightness Sun altitude
Rises 01:00:56 0° 260° (W) 3,691 - -72.8°
Reaches altitude 10° 01:04:57 10° 238° (WSW) 2,712 - -71.8°
Maximum altitude 01:08:28 15° 204° (SSW) 2,354 - -70.9°
Drops below altitude 10° 01:11:59 10° 171° (S) 2,689 - -70.1°
Sets 01:15:57 0° 148° (SSE) 3,641 - -69.1°
